Regional Weather Roundup
Issued by NWS State College, PA

Home | Current Version | Previous Version | Text Only | Print | Product List | Glossary On
Versions: 1 2 3 4 5 6 7 8 9 10 11 12 13 14 15 16 17 18 19 20 21 22 23 24 25 26 27 28 29 30 31 32 33 34 35 36 37 38 39 40 41 42 43 44 45 46 47 48 49 50
000
ASUS41 KCTP 221310
RWRCTP

REGIONAL WEATHER ROUNDUP
NATIONAL WEATHER SERVICE STATE COLLEGE PA
800 AM EST MON DEC 22 2014

Note: "fair" indicates few or no clouds below 12,000 feet with no
significant weather and/or obstructions to visibility.

* = STATION THAT DOES NOT REPORT PRECIPITATION /E.G. RAIN...SNOW...ETC/
    THUNDER OR FOG.

PAZ002>004-007>009-013>016-020>023-029>032-221400-
WESTERN PENNSYLVANIA

CITY           SKY/WX    TMP DP  RH WIND       PRES   REMARKS
ERIE           CLOUDY    28  20  71 SE9       30.14F
MEADVILLE      MOCLDY    25  19  78 VRB6      30.11S HAZE
FRANKLIN*      MOCLDY    23  18  80 E9        30.13S WCI  13
NEW CASTLE       N/A     24  21  88 CALM      30.14S
BEAVER COUNTY  MOCLDY    25  21  86 E5        30.11S
BUTLER*        PTCLDY    25  21  86 E7        30.14S
PITTSBURGH INT MOCLDY    24  22  91 E5        30.11S FOG
PITTSBURGH     CLEAR     28  20  71 E7        30.11S HAZE
INDIANA*       CLEAR     27  23  86 CALM      30.18S
LATROBE        PTCLDY    28  25  86 VRB5      30.15S
WASHINGTON CO* NOT AVBL
$$

PAZ004>006-010>012-017>019-024>028-033>037-041-042-045-046-049>053-221400-
CENTRAL PENNSYLVANIA

CITY           SKY/WX    TMP DP  RH WIND       PRES   REMARKS
BRADFORD       PTCLDY    21  17  84 SE7       30.13R WCI  12
DUBOIS         CLEAR     22  19  89 E8        30.14R FOG     WCI  12
CLEARFIELD     CLEAR     20  18  92 NE9       30.20R WCI   9
JOHNSTOWN      CLEAR     22  18  85 S9        30.13R FOG     WCI  12
ALTOONA        CLOUDY    23  21  92 CALM      30.22R FOG
STATE COLLEGE  PTCLDY    21  19  93 CALM      30.23R
WILLIAMSPORT   MOCLDY    22  18  85 CALM      30.30S
SELINSGROVE    CLEAR     18  15  88 NW3       30.31F FOG
FT INDIANTOWN  CLOUDY    21  19  89 NE1       30.31S
CAPITAL CITY   CLEAR     21  18  88 CALM      30.31F FOG
HARRISBURG     PTCLDY    21  18  88 CALM      30.30F
YORK           CLOUDY    22  19  89 E6        30.27F FOG     WCI  14
$$

PAZ038>040-043-044-047-048-054-055-060>062-067>071-221400-
EASTERN PENNSYLVANIA

CITY           SKY/WX    TMP DP  RH WIND       PRES   REMARKS
SCRANTON       CLOUDY    32  25  75 VRB5      30.27R
MOUNT POCONO   CLOUDY    27  25  92 SE6       30.23R FOG
ALLENTOWN      CLOUDY    32  26  78 CALM      30.32R
QUAKERTOWN*    CLOUDY    32  28  86 CALM      30.31S
READING        CLOUDY    24  21  88 CALM      30.32R
LANCASTER      CLEAR     20  15  81 NE3       30.29F HAZE
COATESVILLE    MOSUNNY   27  25  93 N3        30.29S
POTTSTOWN      CLOUDY    27  23  85 CALM      30.32S
BLUE BELL      CLOUDY    32  28  86 CALM      30.30S
DOYLESTOWN     CLOUDY    32  28  85 N3        30.31R
WILLOW GROVE   NOT AVBL
NORTH PHILA    CLOUDY    35  27  72 N7        30.33R
PHILADELPHIA   PTCLDY    32  25  75 N5        30.32S
$$



USA.gov is the U.S. government's official web portal to all federal, state and local government web resources and services.